Wind_Speed
36 34 37 41 40 34 31 30 31 31 32 32 31 31 32 34 38 39 36 33 31 28 30 31 29 31 32 29 28 29 30 30 31 32 33 34 34 35 36 36 38 39 41 42 43 44 46 47 48 49 50 51 52 53 53 54 53 53 54 55 55 56 56 56 55 55 56 57 58 59 60 61 62 63 64 65 66 67 69 70 72 74 75 76 77 78
37 35 41 43 38 35 34 33 33 33 33 33 33 33 34 36 39 39 36 32 30 28 29 30 28 29 29 29 30 29 29 31 31 33 34 35 36 37 38 39 41 43 45 46 47 48 49 50 52 53 54 55 55 56 57 57 57 57 57 58 58 58 58 58 58 58 58 59 60 61 63 64 65 66 67 68 69 70 71 72 73 74 76 77 79 79
37 38 44 43 39 38 37 35 35 35 35 35 34 34 36 39 39 37 35 33 31 29 29 29 27 28 29 30 31 30 31 32 33 35 36 38 40 41 42 43 44 46 47 48 50 51 53 54 56 57 59 60 60 61 61 61 61 61 61 61 61 61 61 61 61 61 61 62 63 64 65 66 67 68 69 71 72 73 74 75 75 76 77 78 79 81
37 41 45 44 41 40 39 38 38 37 37 37 36 36 38 40 38 36 36 34 33 31 29 28 26 29 32 31 33 33 34 35 35 37 39 40 42 44 45 46 47 49 50 51 53 54 56 58 60 62 63 65 65 66 66 66 65 65 65 65 65 65 64 64 64 64 65 65 66 66 67 68 70 71 72 74 75 76 76 77 78 79 79 79 80 81
39 42 45 45 44 43 41 40 40 40 39 38 38 38 39 40 38 37 37 35 33 31 29 28 26 30 35 34 35 37 37 37 38 39 41 43 45 47 48 49 50 52 53 55 56 58 60 61 64 66 67 69 70 71 71 70 70 69 69 69 68 68 67 67 68 68 69 69 69 69 70 71 72 73 75 76 77 78 78 79 80 81 82 82 82 82
41 44 47 47 46 44 42 42 43 43 41 39 40 41 41 41 40 39 38 36 34 31 31 30 28 31 37 38 37 38 38 40 41 43 44 46 48 50 52 53 54 55 56 58 59 61 63 64 67 69 70 72 73 75 75 74 74 73 72 72 71 70 70 70 71 72 72 73 73 73 73 74 75 76 77 78 79 80 81 81 81 82 83 84 84 85
43 48 48 48 48 46 45 45 47 45 42 41 43 44 43 42 42 40 39 37 34 33 33 34 33 31 35 40 40 40 41 43 44 46 48 50 52 54 55 56 56 58 59 60 61 63 65 67 69 71 73 74 75 77 78 78 76 75 74 74 73 72 72 72 73 74 75 75 76 76 76 77 78 79 80 81 82 83 84 84 83 84 84 85 85 86
47 50 49 49 49 48 48 49 49 46 44 44 46 46 44 44 44 42 40 38 36 35 36 38 38 32 32 40 43 43 45 47 48 50 52 53 55 57 58 58 59 60 61 62 64 66 67 69 71 72 74 75 77 79 81 80 78 77 76 75 74 74 74 75 76 77 78 78 78 79 79 80 81 82 83 85 86 86 87 87 87 87 86 86 86 87
50 50 51 52 51 50 51 51 50 48 47 47 48 48 47 47 46 43 41 39 39 38 38 43 43 35 32 38 45 48 50 52 53 54 55 57 59 60 61 61 62 63 65 66 68 70 71 72 73 73 75 77 79 82 82 81 79 78 78 77 77 77 77 78 79 80 80 81 82 83 83 84 85 87 88 89 90 91 91 91 91 90 89 88 87 87
51 52 53 54 53 52 53 52 51 51 50 50 51 50 50 50 48 46 44 43 43 40 41 47 46 39 34 37 46 52 54 55 57 58 59 61 63 63 64 65 66 67 68 69 72 74 74 74 75 76 78 80 83 84 83 81 80 80 79 79 79 80 80 81 81 82 83 84 86 87 87 89 90 92 93 94 95 96 96 96 95 93 91 90 88 87
53 54 55 55 55 55 54 54 54 54 53 54 54 53 53 52 50 49 47 48 46 42 45 50 49 45 39 40 48 54 55 58 60 62 63 64 66 66 67 68 69 70 71 72 75 76 76 77 78 80 82 84 85 84 83 82 82 81 81 81 81 82 83 84 85 86 87 88 89 90 91 93 94 96 97 98 99 100 99 99 97 95 93 91 88 87
56 56 56 57 56 56 56 56 56 56 56 57 57 56 55 54 53 52 52 52 49 46 49 51 51 49 46 47 53 56 58 60 61 63 65 66 67 68 69 70 71 72 72 74 75 76 78 80 82 84 85 86 85 84 83 84 84 83 82 82 83 84 85 86 88 90 92 93 93 94 96 97 98 99 100 101 102 102 101 100 98 96 94 91 89 87
57 57 57 58 58 58 59 58 59 59 59 59 58 58 58 57 56 55 55 56 53 51 52 53 54 53 51 55 59 59 61 62 63 66 67 68 69 70 70 72 73 73 73 75 77 78 81 83 85 86 86 86 85 85 85 86 85 84 84 84 84 85 87 89 92 95 96 97 98 100 101 102 103 103 104 104 104 104 102 101 98 96 93 91 88 86
58 59 59 59 60 61 61 61 61 61 61 60 60 60 60 59 59 58 59 59 56 56 57 57 57 56 56 60 63 64 65 66 67 69 71 72 73 73 74 74 75 75 75 77 79 82 85 87 88 87 86 86 85 86 87 87 86 86 86 86 87 88 91 94 97 99 100 102 104 106 107 107 108 108 108 108 106 104 102 100 97 94 92 89 87 85
60 60 61 62 62 63 63 63 64 63 62 62 62 62 61 62 63 63 62 61 60 61 61 60 61 60 61 64 65 67 69 70 72 73 74 75 76 76 77 77 77 77 78 80 83 87 89 90 89 88 87 87 87 88 88 87 87 87 87 88 90 93 96 99 101 103 105 107 109 110 111 111 112 113 112 111 108 105 102 99 95 92 89 87 85 84
60 60 61 63 63 64 65 65 65 65 64 63 63 63 64 67 68 66 64 64 64 65 64 64 65 65 66 67 68 71 73 74 74 75 76 77 78 78 77 77 78 79 82 85 88 90 91 90 89 88 88 88 88 88 88 88 88 89 90 92 95 98 101 103 105 107 109 111 112 112 113 115 117 117 115 112 109 105 101 97 93 90 88 86 85 84
60 59 61 63 63 64 64 64 65 65 65 64 64 65 68 70 70 68 67 67 68 68 67 67 68 68 70 70 70 73 75 76 76 77 79 79 78 77 77 78 80 83 86 89 91 92 91 90 90 89 90 90 89 89 89 89 90 91 93 96 99 102 105 107 109 111 113 114 114 116 118 120 120 119 116 113 109 104 99 95 92 89 87 86 86 85
61 61 62 64 64 64 64 64 64 65 65 66 66 69 71 72 71 71 71 70 72 72 70 69 70 71 72 72 72 75 77 77 78 79 80 79 78 78 79 82 85 88 91 92 93 92 92 91 91 91 91 91 90 90 91 91 92 94 96 99 103 107 110 112 114 116 116 117 119 121 123 124 123 120 117 112 108 103 98 95 92 90 89 88 88 88
65 64 64 65 66 66 65 65 65 66 68 69 70 72 73 73 73 74 74 74 75 76 74 72 72 72 72 73 75 76 77 79 80 80 79 79 80 82 84 88 90 92 93 94 94 93 93 93 93 93 92 92 92 92 92 93 95 98 101 105 110 113 116 117 119 119 121 122 125 126 127 126 124 120 116 111 106 102 98 96 94 93 92 91 91 91
69 68 67 68 69 69 68 67 68 69 71 72 72 73 75 76 76 77 78 78 79 80 79 76 74 73 73 75 76 76 78 80 80 79 79 81 83 86 89 92 94 95 95 95 95 94 95 94 94 94 93 93 93 94 95 97 100 103 107 112 115 118 119 121 122 123 125 127 129 129 129 127 123 119 114 109 105 101 99 98 96 95 94 94 93 93
73 72 71 72 73 72 71 71 73 74 75 75 75 76 77 79 80 81 81 82 83 84 83 80 76 73 74 75 75 77 79 80 79 80 82 84 87 90 93 95 95 95 95 96 96 96 96 95 95 94 94 94 95 97 99 102 105 110 114 117 119 121 122 124 125 127 129 131 131 131 129 126 122 117 111 107 104 102 100 99 97 96 95 94 93 93
77 77 77 77 77 76 76 77 78 78 78 78 79 79 80 82 83 85 84 84 86 86 85 84 80 74 73 74 74 76 78 79 81 83 85 88 92 95 96 96 95 95 95 96 96 96 95 95 95 95 95 97 99 101 104 108 112 116 119 121 123 125 126 129 131 132 133 134 134 131 127 123 118 113 108 105 103 101 100 98 97 95 94 94 93 93
80 80 79 79 79 80 80 80 80 81 81 80 80 80 82 84 85 87 86 85 87 87 86 88 83 73 71 73 75 78 79 81 84 87 89 93 96 97 96 95 95 95 95 96 95 95 95 95 96 96 98 100 103 107 111 115 119 122 124 125 126 128 131 134 135 136 137 137 134 130 124 119 114 109 106 103 101 99 97 96 95 94 94 93 93 93
83 82 82 82 82 82 82 81 81 82 82 82 83 84 85 86 86 88 88 88 89 87 87 89 81 69 69 74 78 82 84 86 89 91 94 96 97 97 96 95 96 96 96 96 95 95 96 96 97 99 101 105 109 114 118 121 124 126 127 128 130 132 135 138 139 139 139 136 132 127 122 116 111 106 103 101 99 97 95 94 94 93 93 93 93 93
85 84 84 84 83 82 82 82 83 84 86 87 87 88 88 88 89 90 90 91 89 86 85 85 78 71 74 79 83 87 90 91 94 95 96 97 97 96 96 96 96 96 96 97 97 97 98 99 101 104 108 112 116 120 123 126 128 129 130 132 134 136 139 141 141 140 138 134 129 124 119 113 108 105 102 99 97 95 94 93 93 93 93 93 93 93
86 85 85 84 83 82 81 81 81 83 86 87 86 87 89 90 90 91 91 91 88 84 83 81 80 80 82 85 90 93 93 95 97 97 97 97 96 96 96 95 95 96 97 99 100 101 102 103 106 111 115 119 122 125 128 130 132 133 134 135 137 140 142 143 142 140 135 131 127 121 116 111 107 104 101 99 97 95 94 94 94 93 93 93 93 93
86 85 85 84 83 83 82 82 81 82 83 83 83 85 86 86 87 88 88 87 85 85 84 82 86 91 90 91 96 97 96 98 99 98 97 96 96 96 95 95 95 97 100 101 102 103 105 108 113 118 121 124 127 130 133 135 136 137 138 139 141 144 145 145 142 138 133 129 123 118 114 110 107 104 101 99 97 96 95 95 94 94 93 93 92 92
88 86 85 84 84 84 84 84 84 83 83 83 82 81 80 81 82 83 84 83 85 90 89 88 93 97 93 94 98 98 98 99 98 97 97 97 98 97 96 96 98 101 103 103 104 106 110 115 120 123 125 128 131 134 137 139 140 141 142 143 145 146 147 145 140 136 131 126 120 116 112 110 107 104 101 99 98 97 96 95 95 94 93 93 92 91
91 88 85 84 83 82 84 85 85 84 83 82 81 78 76 77 78 80 83 85 89 94 94 93 96 96 93 95 100 101 101 100 98 98 99 99 99 98 99 101 103 105 105 105 107 112 117 122 124 127 130 132 135 138 141 144 145 146 146 147 148 148 146 142 138 133 128 122 118 114 111 109 106 104 102 100 99 97 96 95 95 94 93 93 92 91
93 90 87 86 84 82 83 84 84 84 83 81 79 76 75 76 79 83 87 91 95 97 95 96 97 95 93 98 102 102 101 101 101 101 101 101 101 102 104 105 106 106 107 110 115 120 124 126 129 131 134 136 139 143 146 148 149 149 150 150 150 149 145 140 135 130 125 120 116 113 110 108 106 104 102 101 99 97 96 95 94 93 93 93 92 91
94 92 90 89 88 85 83 84 86 85 85 83 80 76 77 80 85 89 92 95 97 97 96 98 98 94 95 100 103 103 104 105 105 104 104 104 106 108 108 108 108 110 113 118 123 126 128 130 133 135 137 140 144 147 149 151 152 152 153 153 152 149 144 138 133 128 123 119 115 112 110 108 106 104 102 100 98 97 95 94 93 93 92 92 91 91
96 95 93 92 92 89 87 89 90 89 90 86 78 75 80 85 88 91 92 93 95 96 99 100 98 96 98 102 104 106 109 109 107 107 108 110 111 111 111 111 113 118 122 125 127 129 132 134 136 138 141 145 148 150 152 153 154 155 156 155 153 148 143 137 131 126 121 118 114 111 109 107 106 104 102 100 98 96 95 94 93 92 91 91 90 90
98 97 96 95 96 94 92 92 93 96 95 82 70 76 86 87 87 89 90 92 96 99 101 101 100 101 103 105 108 110 111 110 109 111 113 115 115 114 115 118 122 125 127 129 131 133 135 137 140 143 146 148 151 153 154 155 156 158 158 156 152 147 141 135 129 124 120 117 114 111 109 107 105 103 101 99 97 96 94 93 92 91 90 90 89 89
101 100 99 98 99 98 96 95 99 102 94 79 75 84 88 87 88 91 92 94 97 100 103 104 105 107 109 111 112 112 112 112 113 115 117 118 119 119 122 125 128 129 131 133 135 137 139 141 144 147 149 152 153 154 156 157 158 159 158 155 151 146 139 133 127 122 119 116 113 111 109 106 104 102 100 98 96 95 93 92 91 90 89 89 88 88
102 102 102 102 103 102 100 101 104 102 94 87 86 86 86 90 96 98 97 96 98 102 106 108 110 113 115 116 116 114 115 116 117 118 119 121 123 125 127 129 131 133 135 137 139 141 143 146 148 151 153 154 155 156 158 159 160 160 157 153 148 142 135 129 124 121 118 115 113 110 108 106 104 101 99 97 96 94 93 92 91 90 89 88 87 86
103 104 105 106 107 107 106 106 107 104 97 92 88 87 91 98 102 102 102 101 102 106 110 112 116 118 119 119 119 119 120 121 120 121 123 125 127 128 131 132 134 136 138 140 142 144 147 149 152 154 155 156 157 158 160 161 160 158 155 150 144 137 131 126 122 119 116 114 112 110 107 105 103 101 99 97 95 94 93 91 90 89 88 87 86 85
105 106 108 109 110 111 112 111 111 108 101 94 92 96 101 104 105 107 108 107 108 111 114 117 121 122 122 123 123 124 125 124 124 125 127 129 130 131 133 135 136 138 141 143 145 148 150 153 154 155 156 157 159 161 162 162 159 156 152 145 138 132 127 123 120 118 115 113 111 109 107 105 103 101 99 97 95 94 92 91 89 88 87 86 85 84
107 108 109 110 112 113 114 114 114 113 107 101 102 106 108 109 111 113 114 113 112 114 118 121 124 124 125 127 127 127 128 127 127 129 131 131 132 133 135 137 139 141 143 146 149 152 154 155 156 157 158 160 162 163 163 161 157 152 146 139 132 128 124 121 119 116 114 112 110 108 106 105 103 101 99 97 95 93 92 90 89 87 86 85 84 83
109 110 110 111 113 114 115 116 116 116 112 108 109 111 112 114 116 118 120 118 114 116 122 125 125 127 128 129 130 130 130 130 131 132 133 133 134 136 138 140 142 145 147 151 153 155 156 156 157 159 161 163 164 163 161 157 151 145 138 133 128 125 122 120 117 115 113 111 109 107 105 104 102 100 98 96 94 93 91 90 88 86 85 84 83 82
111 112 113 113 114 114 115 117 117 117 114 112 113 114 115 117 119 122 124 121 119 122 126 126 127 129 130 131 132 133 133 133 134 134 135 136 138 140 142 144 146 149 152 155 155 156 157 158 160 162 164 165 164 161 157 151 144 138 133 129 126 123 121 118 115 113 111 109 107 105 103 101 100 98 96 95 93 92 90 88 87 85 84 83 82 81
112 113 114 114 114 115 116 117 118 118 116 115 116 117 119 121 123 125 125 125 126 128 129 129 130 131 131 133 134 134 134 135 135 136 138 139 141 143 145 148 151 154 156 156 157 158 159 162 164 165 166 165 162 157 150 143 137 133 129 126 124 121 118 115 113 111 109 107 105 103 101 99 97 96 94 93 91 90 88 87 86 84 83 82 81 81
113 114 115 116 116 117 118 119 120 120 117 117 119 122 123 125 127 127 128 129 131 132 132 133 134 133 134 135 135 135 136 137 139 140 141 142 144 146 150 153 155 156 157 158 159 161 163 165 166 166 165 161 156 150 143 137 132 129 126 123 121 118 116 113 111 109 107 105 103 101 98 97 95 94 92 91 89 88 87 86 85 83 83 82 81 81
117 118 119 119 118 118 120 122 123 122 121 121 124 126 127 128 129 131 131 133 134 135 136 137 137 137 137 136 136 138 139 141 142 143 144 146 149 152 154 156 157 157 158 160 162 164 166 167 166 164 160 155 148 141 136 132 129 126 123 120 118 116 113 111 108 106 104 102 100 98 97 95 93 92 90 89 88 87 86 85 84 83 83 82 81 81
121 121 121 121 121 122 124 125 125 125 124 125 126 127 128 130 132 133 134 135 137 138 139 139 139 139 139 139 140 141 142 144 145 147 149 152 154 155 157 157 158 159 161 163 166 167 167 165 162 158 152 146 140 135 131 129 126 123 120 118 116 113 111 109 106 104 102 100 99 97 95 93 91 90 89 88 87 87 86 86 85 84 83 82 81 80
125 125 124 124 125 126 126 126 126 126 125 125 126 128 130 132 134 135 137 139 141 142 142 141 141 141 142 143 144 144 145 147 149 152 154 155 156 158 159 160 161 163 165 167 167 167 164 161 156 150 144 139 135 131 129 126 123 120 118 115 113 111 109 106 104 102 100 99 97 95 93 91 90 89 88 88 88 87 87 87 86 85 84 83 81 80
128 128 127 126 126 127 126 126 125 125 124 125 126 129 131 134 137 139 141 142 143 143 143 143 144 146 146 147 147 148 150 152 153 155 156 157 159 160 161 163 165 167 168 168 166 163 159 154 148 142 137 134 131 129 127 124 121 118 115 113 111 108 106 104 102 100 99 97 95 93 91 90 89 88 88 88 88 88 88 88 87 86 84 83 81 80
127 126 126 125 125 125 124 124 123 123 124 126 128 131 135 138 141 142 143 144 145 146 147 148 149 150 150 150 151 152 153 155 156 157 158 159 161 163 165 167 168 169 168 166 163 159 153 147 141 136 133 131 129 127 123 120 118 115 113 110 108 106 104 102 100 99 97 96 93 91 90 88 88 88 88 88 89 89 88 88 86 85 84 83 82 81
123 123 123 122 122 122 122 122 123 125 127 130 133 136 139 141 143 145 147 149 150 151 152 153 153 153 153 154 154 155 156 157 159 159 161 162 164 166 168 169 169 168 166 162 158 152 146 140 135 132 130 128 126 123 120 117 115 113 110 108 106 104 102 100 99 97 96 94 92 90 89 88 88 88 88 88 89 89 88 87 86 85 84 83 82 80
121 121 120 121 122 124 125 126 129 131 134 137 140 142 144 146 148 150 152 154 155 155 155 156 156 156 156 156 157 158 159 160 161 162 164 165 167 168 169 169 168 165 161 156 150 144 139 135 132 129 127 125 122 119 117 115 112 110 108 106 104 102 100 99 97 96 95 93 91 89 88 87 87 87 87 88 88 88 87 86 85 85 84 83 81 79
123 123 125 127 129 131 133 135 137 139 141 143 145 147 149 151 153 154 156 156 157 157 158 158 158 158 158 159 159 160 161 163 164 166 167 168 168 169 169 167 163 158 153 148 142 138 135 132 129 126 123 121 118 116 114 111 109 107 105 103 101 99 98 96 95 94 92 90 89 87 86 86 86 86 86 87 87 86 86 85 85 85 84 82 80 78
131 132 133 135 136 138 140 142 143 145 146 147 149 151 152 154 156 157 158 159 159 160 160 160 160 160 161 161 163 164 165 166 167 168 168 168 168 167 165 160 155 150 145 140 137 134 132 129 125 123 120 118 115 113 110 108 106 104 102 100 98 96 95 94 93 91 89 88 86 85 84 84 84 85 85 85 85 84 84 85 85 85 83 81 79 77
Wind_Direction
260 261 261 259 259 262 262 258 258 260 262 265 268 269 270 273 276 281 287 289 288 288 284 285 287 284 288 292 291 291 294 296 298 297 297 297 297 296 296 296 297 297 297 297 298 298 299 301 301 301 301 300 300 300 301 301 301 301 300 298 296 294 293 293 294 295 297 297 297 296 294 293 293 293 294 294 294 294 293 291 289 288 286 284 283 282
259 259 258 258 261 261 259 258 259 261 263 265 266 268 271 272 275 281 285 286 286 285 283 285 288 285 287 290 290 293 295 296 296 296 295 296 296 296 296 296 296 297 298 299 300 301 302 304 305 305 304 304 303 303 303 302 302 302 301 299 297 295 294 293 293 295 296 297 297 295 293 293 293 293 294 294 294 294 293 292 291 289 287 285 283 282
258 257 256 259 261 260 259 260 261 262 263 264 266 269 271 272 275 279 281 282 283 283 282 285 288 286 287 289 291 294 294 293 293 293 294 296 296 297 298 299 299 300 302 303 304 305 307 308 308 308 308 307 306 306 305 304 303 302 301 300 298 296 295 295 295 296 297 297 296 295 294 294 293 293 293 294 294 294 293 292 291 289 288 286 284 282
257 256 257 260 260 259 260 261 262 263 263 265 267 269 270 272 274 275 277 280 281 281 281 282 285 285 285 288 290 290 290 291 293 295 297 298 298 300 301 302 304 305 306 306 307 308 309 309 309 309 309 309 308 307 306 305 304 303 302 301 299 297 296 296 298 299 298 298 297 296 296 294 293 293 293 294 294 294 293 293 291 290 288 286 284 282
257 257 258 259 259 260 261 262 263 263 263 265 268 269 269 269 271 273 275 277 277 277 277 279 282 283 284 287 288 289 291 293 296 298 298 298 299 300 302 304 305 306 306 307 307 308 308 308 308 309 309 309 308 308 307 306 305 304 303 302 300 298 298 299 300 301 300 300 299 298 297 295 294 294 294 293 293 293 292 292 291 290 288 286 285 283
259 257 257 258 260 261 262 262 262 263 264 266 267 268 267 266 269 272 272 273 274 274 275 278 278 280 284 287 288 290 293 295 296 296 296 296 297 299 301 303 304 305 305 306 307 306 306 306 307 308 308 308 308 307 306 305 305 305 304 302 301 300 301 302 302 302 302 302 301 300 299 298 297 296 295 294 293 292 291 291 290 289 288 286 285 283
259 258 258 259 260 261 262 261 262 264 266 266 266 266 265 265 268 270 270 270 271 270 273 276 275 277 284 286 287 291 293 292 292 293 293 294 296 298 301 302 303 303 304 305 305 304 305 305 306 307 307 307 307 306 305 304 304 304 304 303 303 303 303 304 304 305 304 303 302 301 300 299 298 297 296 296 295 294 293 292 291 290 288 286 284 282
259 259 260 260 260 261 261 261 262 265 266 264 265 266 264 264 266 268 268 268 268 269 272 274 273 276 281 283 287 290 289 288 289 290 290 292 294 297 299 300 301 302 302 302 302 303 304 304 305 305 305 305 305 304 303 303 303 304 304 304 304 304 305 306 306 306 305 304 304 303 302 300 299 299 298 297 297 296 296 295 293 292 291 288 285 282
260 261 262 261 261 261 261 262 264 265 264 263 265 265 263 263 266 267 267 267 267 268 271 271 273 278 280 282 285 286 285 286 287 287 288 290 293 294 296 298 299 300 300 300 301 303 304 304 303 303 303 303 302 302 302 302 302 303 304 304 304 305 307 307 307 306 306 306 305 304 303 303 302 302 301 301 300 299 299 298 296 295 293 291 287 284
262 262 262 262 262 262 262 264 265 265 264 264 265 265 263 263 266 267 267 267 268 269 270 270 274 279 280 281 282 281 283 284 285 286 288 290 291 292 294 296 297 297 297 298 300 303 303 303 303 302 302 301 301 301 301 301 302 303 303 303 305 306 307 306 306 307 307 307 306 305 305 304 304 304 304 304 303 303 302 301 299 297 294 292 289 285
262 262 262 263 263 263 264 265 265 265 265 265 265 265 263 263 265 266 266 267 269 270 269 271 275 279 280 279 277 277 280 281 283 285 287 288 289 291 292 294 294 294 295 297 300 302 302 302 302 302 301 300 300 300 301 301 302 302 302 304 305 306 306 306 307 307 307 307 307 306 305 305 305 305 305 305 305 304 303 302 300 297 294 291 288 284
262 262 263 263 264 264 265 265 265 266 266 266 266 266 265 264 264 265 266 268 270 270 270 272 276 278 280 278 275 276 277 279 282 283 284 284 285 287 289 290 290 291 293 295 298 299 300 301 301 300 299 299 299 300 300 300 300 300 301 302 303 304 305 306 307 308 308 308 307 307 306 306 306 306 306 305 305 304 302 301 299 296 294 291 287 283
263 263 264 265 265 265 264 265 265 265 266 267 268 267 265 263 263 264 266 267 270 271 271 273 275 277 279 278 276 277 278 280 281 281 281 282 283 285 286 287 288 289 292 294 296 297 298 299 298 297 297 297 298 299 299 298 298 299 300 301 303 304 306 307 309 309 309 309 308 308 308 308 307 307 306 305 304 303 301 300 298 295 293 290 287 283
264 264 265 264 264 264 265 265 265 266 268 268 268 266 264 263 262 263 264 267 270 271 271 273 275 276 277 277 278 279 281 281 282 282 283 283 284 285 285 287 288 290 293 295 296 297 297 297 297 297 297 297 298 298 297 297 298 299 301 303 305 306 308 310 310 311 310 310 310 310 310 310 309 308 307 306 304 302 300 299 296 294 292 289 286 283
263 263 264 264 264 265 265 266 267 268 268 268 267 265 264 263 262 262 263 267 269 270 271 273 274 275 275 276 278 281 282 283 283 284 285 285 285 285 286 288 290 292 294 295 296 296 296 296 297 298 298 298 298 297 297 297 299 301 303 305 308 310 311 311 311 311 311 311 311 311 311 311 310 310 308 306 304 302 300 298 295 293 290 288 285 282
263 263 264 264 264 264 265 266 267 268 268 267 267 266 265 264 263 264 265 267 268 270 272 274 274 276 276 278 280 281 282 283 284 285 285 285 286 286 287 289 291 293 294 294 295 295 296 297 298 299 298 298 297 297 297 299 301 303 306 308 310 311 312 312 311 311 311 312 312 312 312 311 311 310 308 306 304 302 299 297 294 292 289 287 285 282
264 264 265 265 265 265 265 266 267 267 267 267 267 267 266 265 266 267 267 268 269 271 272 273 274 276 278 280 282 283 283 284 284 285 285 285 285 286 288 290 291 292 293 293 294 295 297 298 299 298 298 297 297 297 299 300 302 305 308 310 311 312 312 312 312 312 312 312 312 312 312 312 311 310 308 306 304 301 299 296 293 291 289 287 285 283
264 265 265 266 266 266 267 267 267 267 267 268 267 267 267 267 269 270 270 270 271 271 271 272 274 277 279 282 283 283 284 284 284 284 284 285 286 288 290 291 291 292 293 294 295 297 299 299 299 298 297 297 297 298 299 301 304 307 309 310 312 312 313 313 313 313 313 313 313 313 313 312 311 309 308 305 303 300 298 295 293 291 289 287 285 283
263 263 264 266 267 267 267 267 268 269 269 268 268 268 269 270 271 271 272 272 272 272 272 273 275 278 282 284 284 284 284 283 283 283 283 285 287 289 290 290 291 292 293 295 297 298 299 298 298 297 297 297 297 299 301 304 307 309 311 312 313 314 314 314 314 314 314 314 314 314 313 312 310 309 307 304 302 299 297 295 293 291 289 287 285 283
263 263 264 265 266 266 267 268 268 268 268 268 269 270 271 272 272 272 272 272 273 273 274 275 277 281 284 285 285 285 284 283 282 282 284 286 288 289 289 290 291 292 294 296 297 298 298 298 298 297 297 298 300 302 305 308 310 312 313 314 314 314 314 314 314 314 314 314 314 313 312 311 310 308 305 303 301 299 297 295 293 292 290 288 286 284
263 264 263 263 264 266 267 267 266 266 268 269 270 271 272 272 272 272 272 273 274 276 278 279 281 284 285 286 285 284 283 282 282 283 284 286 287 287 288 289 291 293 295 297 298 298 298 298 298 298 300 302 305 307 309 311 312 313 314 314 314 314 314 314 314 314 314 314 313 313 312 310 308 306 304 302 300 298 297 295 294 292 290 288 286 284
264 264 264 264 265 265 265 265 266 267 269 270 271 272 272 272 271 271 272 275 277 278 280 282 283 285 286 286 284 282 281 281 282 283 284 285 286 287 288 290 292 294 296 297 298 298 298 298 299 301 304 306 309 310 311 313 314 314 314 314 314 314 314 314 314 314 314 313 313 312 311 309 307 305 303 301 299 298 297 295 294 292 290 289 287 285
265 264 264 264 265 265 265 266 268 269 270 271 271 271 271 270 271 272 274 276 277 279 282 283 284 286 286 285 283 282 281 281 281 282 283 284 285 287 288 291 293 295 297 297 297 298 298 300 302 305 307 310 311 312 313 314 314 314 314 314 314 313 313 314 314 314 314 313 312 311 309 307 305 303 301 300 299 297 296 295 293 292 290 289 287 286
265 265 265 265 265 266 267 268 269 270 270 270 270 270 270 272 273 274 275 276 277 280 282 282 284 286 285 283 282 281 281 281 281 282 283 284 286 287 290 293 295 297 297 298 298 299 300 302 305 308 310 312 313 314 314 314 314 314 314 313 313 313 313 313 314 314 313 313 312 310 308 306 304 302 301 299 298 297 295 294 293 291 290 289 287 286
266 266 266 266 266 267 268 268 269 269 269 269 270 271 272 273 274 275 276 277 279 281 282 282 284 286 284 282 280 280 280 281 282 282 283 285 287 289 292 295 296 298 299 300 301 302 304 306 309 311 312 313 314 314 314 314 314 313 313 313 313 313 313 313 313 313 313 312 311 309 307 305 303 302 301 299 298 297 296 294 293 292 290 289 288 287
266 267 267 267 268 268 268 268 268 269 269 271 273 274 274 274 275 276 278 279 280 281 281 283 286 285 282 280 279 279 280 281 282 283 284 286 289 291 294 296 298 300 302 303 305 306 308 310 312 314 314 314 314 313 313 313 313 313 313 313 313 313 313 313 313 313 312 311 309 308 306 304 303 302 301 299 298 297 296 295 293 292 291 290 289 288
267 267 268 268 269 268 268 268 268 269 271 273 274 275 275 276 277 277 278 280 281 281 281 283 283 281 280 280 280 281 282 282 283 285 287 290 292 294 296 299 301 303 305 306 308 309 311 313 314 314 314 314 313 313 313 312 312 312 312 312 312 312 312 313 312 312 311 310 308 306 305 304 303 302 301 300 299 298 297 295 294 293 291 290 289 288
268 268 269 269 269 269 269 269 269 271 272 274 275 276 276 277 277 278 279 280 281 281 281 281 280 279 281 282 282 283 284 284 286 289 292 295 296 298 300 302 304 305 307 308 309 311 313 314 314 314 313 313 312 312 312 312 312 312 312 312 312 312 312 312 312 311 310 308 307 306 305 304 303 302 301 300 299 298 297 296 294 293 292 291 289 288
269 270 271 272 272 272 271 271 271 272 273 274 276 277 277 276 277 277 278 279 279 279 280 281 280 282 284 285 285 286 287 288 291 294 297 298 300 302 304 305 306 307 308 310 312 313 314 313 313 312 312 312 312 311 311 311 311 311 311 312 312 312 312 311 311 310 308 307 306 305 305 304 303 302 301 300 299 298 297 296 295 293 292 291 289 288
271 272 274 275 275 274 272 272 271 271 271 272 273 275 275 274 275 276 277 277 278 280 281 282 282 284 286 287 288 289 291 294 297 299 300 301 303 305 306 307 308 308 310 312 313 314 313 312 312 311 311 311 311 311 311 311 311 311 311 311 312 312 311 310 310 309 308 307 306 305 304 303 303 302 301 300 300 298 297 296 294 293 292 290 289 288
272 273 274 275 275 273 272 272 271 270 269 268 269 271 273 273 273 275 275 276 278 281 282 283 284 286 288 290 291 294 297 299 300 301 303 304 306 306 307 308 309 310 312 313 313 312 311 311 311 310 310 310 310 310 310 310 310 310 311 311 311 311 310 310 309 308 307 306 305 305 304 303 303 302 301 301 299 298 297 295 294 293 291 290 289 288
273 274 276 276 276 275 274 273 273 272 270 268 269 273 275 273 273 274 275 278 280 283 284 285 287 290 292 294 296 299 300 300 301 303 305 306 307 307 308 310 311 312 313 312 311 310 310 310 310 309 309 309 309 309 309 309 310 310 311 311 311 310 310 309 308 307 306 306 305 305 304 304 303 302 301 300 299 298 297 295 294 292 291 290 289 288
275 276 277 277 277 277 276 276 276 275 273 272 275 278 277 276 276 277 279 282 284 286 288 290 293 295 296 297 299 299 299 301 304 305 306 307 308 309 310 311 312 312 311 310 309 309 309 309 308 308 308 308 308 308 309 309 310 310 310 310 310 310 309 308 307 307 306 306 306 305 305 304 303 302 301 300 299 297 296 295 293 292 291 290 289 288
276 277 277 277 278 278 278 278 278 277 277 280 281 280 280 281 283 283 283 285 287 290 293 295 297 298 298 298 299 299 301 303 305 306 307 308 308 310 311 311 310 309 309 308 308 308 308 308 308 308 308 307 308 308 308 309 309 309 310 310 309 309 308 308 307 307 306 306 306 305 304 303 302 301 300 299 298 297 296 294 293 292 292 291 290 289
277 277 277 278 278 279 279 279 279 280 282 283 283 283 285 286 286 286 287 288 291 294 296 297 298 298 298 298 299 300 303 304 305 306 307 308 309 310 310 309 308 307 307 307 307 307 307 307 307 307 307 307 307 308 308 309 309 309 309 309 309 308 307 307 307 307 306 306 305 304 304 303 302 301 300 299 298 297 296 295 294 293 293 292 291 290
277 278 279 280 280 280 281 281 281 283 284 285 286 288 289 288 289 290 291 293 295 296 297 298 297 297 297 298 300 302 303 304 305 307 307 307 308 309 308 307 306 306 306 306 305 306 306 306 306 306 306 306 307 307 308 308 308 308 308 308 308 307 307 307 307 306 306 305 304 304 303 302 301 300 300 299 298 297 296 296 295 294 293 292 291 290
277 278 279 280 281 282 282 283 285 286 287 289 291 291 291 291 292 293 294 296 296 297 297 297 296 296 298 300 301 302 302 303 305 306 306 306 307 306 305 305 304 304 304 304 304 304 304 304 305 305 306 306 307 307 307 308 308 308 308 307 307 306 306 306 306 305 305 304 303 303 302 302 301 300 300 299 298 297 297 296 295 294 293 293 292 291
277 277 278 279 280 281 282 284 285 287 289 292 292 292 292 293 294 294 295 295 296 296 296 295 295 297 299 299 300 300 301 303 304 304 304 305 305 303 303 303 302 302 302 303 303 303 304 304 305 305 305 306 306 307 307 307 307 307 307 306 306 306 306 305 305 304 304 303 303 302 302 302 301 300 300 299 298 298 297 296 295 294 294 293 293 292
275 276 277 277 278 279 281 282 284 286 289 291 291 291 291 292 292 292 292 293 295 295 294 294 296 297 298 298 299 300 301 302 302 302 303 303 302 301 301 301 301 301 302 302 302 303 304 304 305 305 305 306 306 306 307 307 306 306 306 306 305 305 304 304 304 303 303 303 302 302 302 301 301 300 299 299 298 297 296 296 295 295 294 293 293 292
274 275 275 276 277 279 280 281 283 286 288 290 290 290 290 290 289 289 290 293 294 293 292 294 295 295 296 298 298 299 300 300 301 301 301 300 299 299 300 300 300 301 301 302 302 303 304 304 304 304 305 305 306 306 306 306 306 305 305 305 304 304 303 303 303 303 302 302 302 301 301 300 300 299 299 298 298 297 296 296 295 294 294 293 293 292
274 275 275 276 278 279 280 282 283 285 287 288 289 288 287 287 287 288 290 292 292 291 292 293 294 295 296 297 298 298 299 299 298 298 298 298 298 298 299 299 300 300 301 302 302 303 303 304 304 304 305 305 305 305 305 305 305 304 304 303 303 303 302 302 302 302 302 301 301 301 300 300 299 299 298 297 297 296 296 295 295 294 294 293 293 293
273 274 275 277 278 280 280 281 283 285 287 288 286 285 286 287 287 289 289 290 290 291 292 293 294 296 297 297 297 297 296 296 296 296 296 297 297 297 298 299 299 300 301 302 302 302 303 303 303 304 304 304 305 304 304 304 303 303 302 302 302 302 302 302 301 301 301 301 301 300 299 299 298 298 297 297 296 296 295 295 294 294 294 294 294 293
274 274 276 277 278 279 280 281 283 285 286 285 284 285 286 287 287 288 288 289 290 291 292 293 295 295 295 295 294 294 294 294 295 295 296 296 296 297 298 299 299 300 301 301 301 302 302 302 303 303 303 304 304 303 303 302 302 302 302 302 302 301 301 301 301 301 301 301 300 300 299 299 298 298 297 296 296 295 295 295 294 294 294 294 294 294
274 275 276 277 278 279 280 281 283 284 284 284 285 286 286 286 287 288 288 288 289 291 292 293 294 293 293 292 292 293 294 294 294 295 295 296 296 297 298 299 299 300 300 301 301 301 302 302 302 303 303 303 303 302 302 301 301 301 301 301 301 301 301 301 302 301 301 300 300 299 299 298 298 297 297 296 296 295 295 295 295 295 295 295 295 295
274 275 276 276 277 278 279 281 283 284 284 284 285 285 285 286 286 286 287 288 290 291 292 292 291 291 291 291 292 293 294 294 294 295 295 296 297 297 298 298 299 300 300 300 301 301 301 302 302 302 302 302 301 301 301 301 301 301 301 301 301 301 301 301 301 301 300 300 300 299 299 298 298 297 297 296 296 296 295 295 295 295 295 295 295 295
273 274 275 276 278 279 281 282 283 283 283 283 284 283 283 283 284 285 287 288 289 290 289 289 289 290 291 291 292 293 293 294 295 295 295 296 296 297 298 298 299 299 300 300 300 301 301 301 302 301 301 301 300 300 300 300 301 301 301 301 301 301 301 301 301 300 300 299 299 299 298 298 297 297 296 296 296 295 295 295 295 295 295 295 295 295
274 275 276 278 279 280 281 282 282 281 280 281 281 281 281 282 284 285 286 287 287 287 287 288 289 289 290 291 292 293 294 294 294 295 295 296 296 297 298 298 298 299 299 300 300 300 300 301 301 300 300 300 299 299 300 300 300 300 300 301 301 301 301 300 300 300 299 299 299 298 298 297 297 296 296 295 295 294 294 295 295 295 295 295 295 295
274 275 276 278 279 279 279 279 278 277 277 278 279 280 281 282 283 284 284 285 285 286 287 287 288 289 291 292 293 293 293 293 294 295 295 296 296 297 297 298 298 299 299 299 299 299 300 300 299 299 299 299 299 299 300 300 300 300 300 300 300 300 300 300 300 299 299 299 298 298 297 296 296 295 295 294 294 294 294 295 295 295 295 295 295 295
273 273 274 275 275 275 276 276 275 276 277 278 279 280 280 281 282 282 283 284 285 285 287 288 289 290 291 292 292 292 293 294 294 295 295 296 296 296 297 297 298 298 298 298 298 298 298 298 298 298 298 298 298 299 299 300 300 300 300 300 300 300 300 299 299 299 298 298 297 296 296 295 295 294 294 294 294 294 295 295 295 295 295 295 295 295
270 270 271 272 273 274 275 275 275 276 278 278 279 279 280 281 281 282 283 283 284 286 287 288 289 290 290 291 292 292 293 294 294 294 295 295 295 296 296 297 297 297 297 297 297 297 297 297 297 297 298 298 298 299 299 299 299 299 299 299 299 299 299 298 298 297 296 296 295 295 294 294 294 293 293 293 294 294 295 295 294 294 294 294 294 294
269 269 270 272 273 274 274 274 275 277 277 278 278 279 280 280 281 281 282 283 285 286 287 288 289 289 290 291 292 293 293 293 294 294 294 295 295 295 296 296 296 296 296 296 296 296 297 297 297 297 298 298 298 298 298 298 298 298 298 298 299 298 298 297 296 295 294 294 294 294 293 293 293 292 292 293 294 294 294 294 294 294 294 295 295 295
Height
10749 10751 10749 10745 10746 10752 10755 10756 10755 10756 10756 10756 10757 10758 10758 10756 10754 10753 10757 10760 10760 10761 10759 10758 10758 10755 10753 10754 10754 10754 10754 10753 10753 10753 10752 10751 10751 10751 10751 10751 10750 10749 10748 10748 10747 10746 10745 10745 10744 10742 10741 10740 10739 10737 10736 10735 10734 10732 10731 10729 10727 10725 10723 10721 10719 10717 10715 10713 10711 10709 10707 10705 10704 10702 10700 10699 10697 10695 10692 10690 10688 10686 10684 10682 10680 10679
10745 10747 10742 10740 10745 10749 10750 10751 10751 10752 10752 10752 10753 10753 10754 10753 10751 10750 10753 10755 10756 10757 10755 10754 10754 10752 10750 10750 10749 10750 10750 10749 10749 10748 10748 10747 10746 10746 10746 10746 10745 10744 10743 10742 10742 10741 10740 10739 10738 10736 10735 10734 10733 10731 10730 10728 10727 10726 10724 10722 10720 10718 10715 10713 10712 10710 10708 10705 10703 10701 10699 10697 10695 10693 10691 10689 10687 10685 10683 10681 10678 10675 10673 10671 10669 10668
10742 10742 10736 10737 10743 10744 10745 10746 10747 10748 10748 10748 10748 10749 10749 10747 10748 10748 10749 10751 10752 10753 10752 10751 10751 10748 10746 10746 10745 10746 10746 10745 10745 10744 10743 10742 10741 10741 10740 10740 10739 10739 10738 10737 10736 10735 10734 10733 10732 10730 10729 10728 10727 10725 10724 10722 10721 10719 10717 10715 10712 10710 10707 10705 10703 10701 10699 10697 10695 10693 10691 10689 10686 10684 10682 10680 10677 10675 10673 10670 10668 10665 10663 10660 10658 10656
10739 10736 10732 10735 10738 10738 10740 10742 10742 10743 10743 10743 10744 10745 10744 10742 10744 10745 10745 10747 10748 10748 10748 10748 10748 10744 10742 10742 10741 10741 10741 10740 10740 10739 10737 10736 10735 10735 10734 10734 10734 10733 10733 10731 10730 10729 10728 10726 10725 10724 10723 10722 10720 10719 10717 10715 10713 10711 10709 10707 10704 10702 10699 10696 10694 10692 10690 10689 10687 10685 10682 10680 10677 10675 10673 10670 10667 10664 10661 10659 10656 10654 10652 10649 10647 10644
10735 10731 10729 10730 10732 10734 10736 10737 10737 10737 10738 10739 10739 10739 10739 10738 10740 10741 10741 10742 10743 10744 10744 10744 10745 10741 10737 10738 10738 10736 10736 10735 10734 10734 10732 10731 10730 10729 10729 10728 10728 10727 10727 10725 10724 10723 10721 10720 10719 10717 10716 10715 10713 10711 10710 10708 10706 10704 10701 10699 10696 10693 10690 10687 10684 10682 10681 10679 10677 10675 10673 10670 10668 10666 10663 10660 10657 10654 10650 10647 10644 10641 10639 10637 10635 10633
10729 10726 10725 10725 10726 10729 10731 10732 10731 10731 10734 10735 10735 10734 10734 10734 10735 10737 10737 10738 10739 10740 10739 10740 10742 10739 10734 10733 10733 10732 10731 10730 10729 10728 10727 10725 10724 10723 10723 10722 10722 10721 10720 10719 10717 10716 10714 10713 10711 10710 10708 10707 10705 10703 10701 10699 10697 10695 10693 10690 10687 10684 10681 10678 10675 10672 10671 10669 10666 10664 10662 10660 10657 10654 10652 10649 10646 10642 10639 10636 10633 10629 10626 10624 10622 10620
10724 10719 10719 10721 10722 10724 10726 10726 10724 10725 10730 10731 10729 10728 10729 10730 10730 10732 10732 10733 10735 10735 10735 10735 10736 10738 10734 10728 10726 10726 10725 10723 10722 10721 10720 10719 10718 10717 10717 10716 10715 10714 10713 10712 10710 10708 10707 10706 10704 10702 10700 10698 10696 10694 10692 10690 10688 10686 10683 10680 10677 10674 10671 10668 10665 10663 10660 10658 10656 10653 10651 10648 10646 10642 10639 10636 10632 10629 10626 10623 10620 10617 10614 10611 10608 10606
10716 10713 10715 10716 10717 10719 10720 10719 10719 10721 10725 10725 10722 10722 10725 10725 10725 10727 10727 10729 10731 10731 10731 10729 10729 10735 10734 10725 10721 10720 10718 10717 10716 10715 10714 10713 10712 10711 10710 10710 10709 10707 10706 10705 10703 10701 10700 10699 10697 10695 10693 10690 10688 10685 10683 10681 10679 10676 10673 10669 10666 10663 10661 10658 10655 10652 10649 10647 10644 10642 10639 10636 10633 10630 10626 10623 10619 10615 10611 10608 10605 10602 10599 10596 10594 10592
10710 10710 10710 10710 10712 10713 10713 10713 10715 10717 10718 10718 10717 10717 10719 10719 10720 10722 10723 10725 10726 10727 10727 10722 10722 10730 10732 10725 10718 10715 10712 10710 10709 10708 10707 10706 10705 10704 10704 10703 10702 10700 10699 10697 10695 10694 10693 10692 10689 10687 10685 10682 10679 10677 10674 10672 10669 10666 10663 10659 10656 10653 10650 10647 10644 10641 10638 10635 10632 10628 10625 10622 10619 10615 10612 10608 10605 10601 10597 10594 10590 10587 10584 10581 10578 10576
10705 10705 10703 10704 10706 10707 10706 10708 10709 10710 10712 10712 10712 10712 10712 10713 10715 10716 10718 10719 10720 10723 10722 10715 10716 10723 10728 10725 10716 10710 10707 10705 10702 10700 10699 10698 10697 10696 10696 10695 10693 10692 10690 10688 10687 10686 10684 10682 10680 10679 10676 10673 10671 10668 10665 10663 10659 10656 10652 10648 10645 10641 10638 10635 10632 10630 10626 10623 10619 10616 10612 10608 10605 10601 10597 10593 10589 10585 10582 10578 10575 10572 10569 10566 10562 10560
10698 10698 10698 10698 10699 10700 10701 10702 10703 10704 10705 10705 10705 10706 10706 10708 10710 10711 10712 10712 10714 10719 10716 10710 10711 10716 10721 10722 10713 10706 10704 10701 10697 10695 10693 10691 10689 10689 10688 10686 10685 10683 10681 10680 10679 10677 10675 10673 10671 10668 10666 10663 10661 10659 10656 10653 10649 10645 10642 10638 10634 10630 10626 10623 10620 10617 10613 10610 10606 10603 10599 10595 10591 10587 10583 10579 10575 10570 10566 10563 10559 10556 10553 10550 10547 10545
10690 10691 10692 10692 10693 10695 10695 10695 10696 10697 10698 10698 10699 10700 10701 10702 10704 10704 10706 10705 10708 10712 10709 10706 10707 10709 10714 10713 10706 10703 10700 10697 10695 10691 10688 10686 10684 10683 10682 10680 10678 10676 10675 10674 10673 10671 10669 10666 10664 10660 10658 10655 10652 10650 10646 10643 10640 10636 10632 10628 10624 10620 10616 10611 10607 10604 10600 10596 10593 10589 10585 10581 10577 10573 10569 10565 10560 10555 10551 10547 10543 10540 10537 10534 10532 10529
10683 10685 10685 10686 10687 10688 10688 10689 10689 10690 10691 10692 10694 10694 10694 10695 10696 10698 10698 10698 10701 10704 10703 10702 10702 10704 10706 10702 10696 10696 10693 10692 10690 10686 10683 10681 10679 10677 10675 10673 10671 10670 10669 10668 10666 10664 10662 10660 10657 10654 10651 10648 10644 10641 10637 10633 10630 10626 10622 10617 10613 10609 10605 10600 10596 10591 10587 10583 10579 10575 10571 10567 10563 10558 10554 10549 10544 10540 10535 10531 10527 10523 10520 10518 10515 10513
10677 10678 10678 10679 10680 10680 10681 10681 10681 10683 10685 10687 10687 10686 10686 10687 10688 10690 10690 10691 10695 10696 10696 10697 10697 10699 10700 10693 10688 10687 10686 10684 10681 10678 10676 10673 10670 10669 10667 10664 10663 10662 10661 10660 10658 10655 10652 10650 10648 10645 10642 10639 10635 10631 10627 10623 10619 10614 10610 10605 10601 10597 10592 10588 10583 10579 10574 10569 10564 10560 10556 10551 10546 10542 10537 10532 10528 10523 10519 10515 10510 10507 10504 10501 10498 10496
10670 10671 10671 10671 10672 10673 10674 10674 10674 10677 10678 10679 10679 10678 10679 10678 10678 10681 10683 10685 10688 10688 10689 10690 10689 10691 10690 10686 10683 10680 10677 10674 10671 10669 10666 10663 10661 10659 10657 10655 10653 10653 10652 10650 10648 10645 10642 10640 10637 10634 10631 10627 10624 10620 10616 10611 10606 10602 10597 10593 10589 10584 10580 10575 10570 10565 10560 10555 10550 10545 10540 10535 10530 10524 10519 10514 10510 10505 10502 10498 10493 10490 10486 10484 10481 10479
10662 10665 10664 10663 10666 10666 10666 10668 10668 10669 10671 10671 10671 10672 10672 10668 10667 10673 10677 10679 10679 10680 10683 10683 10681 10682 10680 10679 10678 10673 10669 10666 10663 10660 10656 10653 10652 10649 10648 10646 10644 10643 10642 10640 10637 10635 10632 10630 10626 10623 10619 10616 10612 10608 10603 10598 10593 10589 10585 10580 10576 10571 10566 10561 10556 10551 10546 10541 10536 10531 10525 10519 10513 10507 10502 10497 10492 10487 10484 10480 10476 10472 10469 10466 10464 10461
10656 10658 10657 10656 10658 10658 10659 10661 10661 10662 10663 10664 10665 10664 10661 10658 10661 10666 10669 10670 10669 10671 10676 10675 10674 10674 10671 10671 10671 10665 10660 10658 10654 10649 10645 10642 10642 10640 10639 10638 10636 10634 10632 10630 10627 10625 10622 10619 10615 10612 10608 10604 10600 10595 10589 10585 10580 10576 10572 10567 10562 10557 10552 10547 10542 10536 10531 10526 10521 10516 10509 10503 10497 10491 10485 10480 10475 10470 10466 10462 10459 10455 10451 10448 10446 10443
10649 10650 10650 10648 10649 10651 10652 10653 10654 10655 10655 10656 10656 10654 10651 10652 10656 10657 10658 10661 10659 10660 10666 10669 10668 10667 10665 10664 10663 10656 10651 10648 10644 10638 10634 10632 10631 10631 10630 10628 10626 10624 10622 10620 10617 10614 10611 10608 10604 10600 10596 10591 10586 10581 10576 10572 10567 10563 10558 10553 10548 10542 10537 10532 10527 10522 10517 10513 10507 10501 10495 10488 10481 10474 10468 10463 10457 10453 10449 10445 10441 10438 10434 10431 10428 10426
10640 10642 10643 10642 10642 10643 10644 10646 10648 10647 10646 10646 10646 10645 10644 10647 10648 10647 10647 10649 10649 10649 10655 10661 10661 10661 10660 10657 10652 10649 10643 10638 10634 10629 10625 10623 10621 10620 10620 10617 10615 10614 10611 10609 10606 10603 10600 10596 10592 10588 10583 10577 10571 10566 10562 10558 10554 10549 10544 10539 10533 10528 10523 10518 10513 10508 10503 10498 10492 10486 10479 10472 10465 10458 10452 10446 10441 10436 10432 10428 10424 10420 10417 10413 10410 10408
10632 10634 10637 10636 10634 10634 10637 10640 10640 10638 10635 10636 10638 10639 10638 10638 10639 10638 10637 10637 10638 10638 10643 10651 10654 10655 10653 10647 10643 10641 10634 10626 10623 10620 10617 10615 10613 10611 10609 10607 10605 10604 10601 10598 10595 10592 10588 10583 10579 10574 10567 10562 10557 10552 10549 10544 10540 10535 10529 10525 10520 10514 10509 10504 10499 10494 10488 10482 10476 10469 10462 10455 10448 10441 10435 10429 10424 10419 10415 10411 10407 10403 10400 10396 10393 10390
10624 10625 10628 10628 10626 10628 10631 10631 10628 10627 10628 10629 10631 10632 10631 10629 10628 10627 10627 10627 10627 10627 10631 10636 10644 10649 10644 10638 10635 10631 10622 10617 10613 10610 10607 10606 10605 10602 10600 10598 10596 10594 10591 10588 10584 10579 10575 10571 10565 10559 10552 10547 10543 10538 10534 10530 10525 10520 10515 10511 10506 10500 10494 10489 10484 10479 10473 10467 10461 10454 10447 10440 10432 10425 10419 10413 10408 10403 10398 10394 10390 10386 10382 10379 10375 10372
10614 10615 10617 10619 10620 10622 10621 10619 10618 10620 10621 10622 10622 10623 10622 10619 10616 10615 10618 10620 10617 10616 10620 10621 10630 10641 10635 10627 10625 10619 10612 10609 10604 10600 10598 10596 10594 10592 10590 10589 10587 10584 10581 10576 10572 10567 10562 10556 10549 10543 10538 10533 10529 10524 10520 10515 10510 10505 10502 10497 10492 10486 10479 10474 10469 10464 10458 10452 10445 10439 10433 10425 10418 10410 10404 10399 10393 10388 10383 10378 10374 10369 10366 10362 10358 10355
10602 10605 10608 10610 10612 10611 10611 10612 10612 10612 10612 10613 10614 10613 10609 10606 10606 10605 10608 10612 10607 10607 10610 10606 10615 10631 10627 10615 10610 10605 10602 10599 10593 10591 10591 10587 10583 10581 10580 10579 10576 10574 10569 10564 10559 10554 10548 10541 10535 10530 10525 10519 10514 10508 10504 10499 10495 10491 10488 10483 10478 10471 10464 10458 10453 10448 10442 10436 10429 10422 10416 10409 10402 10395 10390 10384 10379 10374 10369 10364 10359 10354 10350 10346 10342 10338
10590 10594 10599 10600 10602 10602 10604 10606 10606 10604 10604 10604 10602 10600 10598 10598 10599 10595 10597 10600 10597 10601 10602 10593 10602 10620 10616 10604 10597 10591 10588 10587 10583 10583 10581 10576 10573 10571 10569 10567 10564 10560 10556 10550 10545 10539 10532 10526 10521 10516 10511 10505 10499 10493 10488 10484 10481 10477 10473 10468 10463 10456 10449 10443 10437 10432 10426 10419 10412 10405 10397 10390 10384 10379 10374 10369 10365 10360 10355 10349 10344 10339 10335 10331 10327 10323
10579 10584 10589 10590 10593 10596 10597 10598 10598 10596 10593 10590 10591 10592 10591 10591 10589 10587 10588 10586 10587 10594 10591 10582 10591 10604 10601 10592 10584 10578 10576 10575 10573 10572 10570 10566 10563 10561 10559 10555 10551 10546 10540 10534 10527 10521 10515 10511 10506 10501 10496 10490 10484 10478 10474 10470 10467 10463 10458 10453 10447 10440 10433 10427 10421 10415 10409 10402 10395 10387 10379 10373 10368 10363 10358 10354 10349 10345 10340 10335 10330 10325 10320 10316 10313 10309
10569 10574 10579 10581 10585 10588 10588 10589 10589 10585 10581 10582 10586 10586 10583 10583 10581 10579 10578 10575 10577 10580 10578 10577 10580 10582 10584 10580 10569 10566 10567 10564 10560 10559 10557 10556 10553 10550 10547 10543 10539 10533 10525 10517 10510 10505 10500 10495 10490 10485 10479 10474 10468 10463 10458 10455 10451 10448 10443 10438 10431 10424 10416 10410 10404 10398 10392 10385 10377 10369 10362 10356 10351 10347 10342 10338 10333 10329 10325 10320 10315 10311 10306 10302 10299 10295
10560 10565 10570 10573 10576 10577 10577 10578 10578 10576 10574 10576 10579 10577 10575 10575 10574 10571 10567 10567 10567 10562 10565 10574 10566 10557 10567 10567 10553 10553 10556 10549 10546 10546 10544 10544 10540 10536 10534 10531 10526 10518 10510 10503 10496 10491 10485 10479 10474 10468 10463 10459 10453 10447 10443 10439 10435 10431 10426 10421 10414 10407 10399 10393 10387 10382 10375 10368 10360 10352 10345 10340 10335 10330 10326 10322 10318 10313 10309 10304 10300 10296 10291 10288 10284 10281
10551 10555 10561 10563 10565 10566 10566 10566 10568 10568 10567 10567 10568 10569 10569 10567 10565 10563 10558 10558 10556 10546 10551 10563 10549 10541 10555 10552 10537 10538 10538 10533 10533 10533 10530 10527 10522 10520 10519 10516 10510 10502 10494 10489 10484 10478 10472 10465 10459 10454 10449 10444 10439 10433 10427 10422 10418 10413 10409 10404 10397 10390 10384 10377 10371 10365 10357 10351 10344 10336 10330 10324 10319 10314 10310 10306 10302 10298 10293 10289 10284 10280 10276 10273 10269 10266
10540 10545 10551 10552 10555 10558 10556 10555 10557 10559 10558 10559 10560 10561 10563 10560 10557 10554 10550 10548 10543 10533 10538 10544 10533 10532 10543 10534 10521 10519 10518 10517 10519 10517 10513 10510 10506 10505 10502 10498 10491 10484 10477 10473 10468 10463 10457 10451 10446 10440 10435 10430 10424 10417 10411 10405 10399 10394 10390 10386 10380 10373 10367 10361 10355 10348 10340 10334 10327 10321 10315 10309 10303 10299 10295 10291 10287 10283 10278 10274 10269 10265 10261 10257 10254 10252
10530 10536 10540 10540 10543 10546 10545 10545 10547 10547 10547 10551 10554 10556 10556 10555 10551 10545 10541 10536 10526 10522 10527 10525 10518 10525 10530 10515 10503 10502 10501 10501 10501 10498 10496 10494 10492 10489 10485 10479 10473 10466 10461 10457 10452 10447 10442 10437 10432 10426 10420 10415 10409 10402 10396 10389 10382 10376 10371 10367 10361 10354 10348 10343 10337 10330 10324 10318 10312 10306 10301 10294 10289 10284 10280 10276 10272 10268 10264 10259 10254 10250 10246 10242 10239 10237
10520 10525 10529 10529 10529 10532 10535 10534 10532 10534 10535 10538 10547 10553 10551 10547 10543 10535 10529 10523 10515 10514 10514 10507 10505 10514 10514 10497 10487 10487 10485 10483 10482 10482 10481 10479 10476 10471 10467 10462 10456 10450 10446 10442 10438 10433 10428 10422 10417 10412 10406 10400 10393 10387 10380 10373 10366 10359 10353 10348 10342 10336 10330 10325 10319 10313 10307 10302 10296 10291 10286 10280 10275 10270 10265 10261 10256 10252 10248 10244 10240 10235 10232 10228 10225 10222
10510 10513 10517 10517 10514 10518 10524 10518 10515 10518 10516 10522 10543 10549 10538 10532 10530 10522 10517 10513 10508 10502 10496 10491 10494 10498 10493 10482 10476 10473 10469 10466 10468 10468 10465 10461 10457 10453 10449 10444 10439 10435 10431 10427 10424 10420 10415 10409 10404 10398 10392 10385 10379 10372 10364 10357 10350 10342 10335 10329 10323 10317 10312 10307 10302 10296 10290 10285 10280 10276 10271 10265 10260 10255 10250 10245 10240 10236 10233 10228 10224 10220 10217 10214 10211 10207
10499 10501 10503 10503 10499 10503 10507 10504 10501 10498 10495 10514 10541 10537 10518 10515 10515 10510 10506 10503 10495 10486 10479 10477 10479 10477 10471 10466 10463 10459 10455 10454 10455 10452 10447 10443 10438 10434 10431 10427 10422 10420 10416 10412 10409 10405 10400 10395 10389 10384 10378 10371 10364 10356 10349 10341 10334 10325 10318 10311 10305 10299 10294 10289 10284 10279 10274 10269 10264 10260 10255 10250 10245 10239 10234 10229 10225 10221 10217 10213 10209 10205 10202 10199 10196 10192
10487 10489 10490 10489 10486 10487 10492 10491 10484 10476 10484 10511 10525 10513 10502 10504 10500 10493 10491 10488 10481 10473 10466 10462 10460 10456 10452 10449 10447 10445 10444 10443 10442 10438 10432 10426 10421 10417 10414 10410 10407 10405 10401 10397 10393 10388 10384 10379 10374 10368 10362 10355 10348 10341 10333 10325 10317 10309 10302 10295 10288 10282 10277 10272 10268 10263 10258 10253 10248 10244 10239 10234 10229 10224 10219 10214 10209 10205 10201 10197 10194 10190 10187 10184 10180 10177
10475 10475 10474 10474 10471 10471 10476 10475 10465 10464 10482 10498 10499 10496 10496 10489 10479 10474 10472 10473 10470 10461 10452 10447 10443 10439 10435 10432 10431 10431 10431 10430 10427 10423 10417 10410 10406 10405 10401 10396 10393 10389 10386 10381 10377 10373 10369 10364 10359 10353 10346 10339 10332 10325 10317 10309 10301 10294 10287 10280 10273 10267 10262 10257 10253 10248 10243 10238 10233 10228 10223 10218 10213 10208 10204 10199 10194 10190 10186 10182 10179 10175 10172 10169 10165 10162
10462 10461 10459 10458 10456 10455 10457 10456 10451 10456 10471 10480 10482 10485 10480 10467 10459 10457 10454 10456 10456 10446 10438 10433 10427 10423 10421 10418 10417 10417 10416 10414 10413 10409 10403 10397 10395 10394 10389 10383 10379 10375 10371 10367 10363 10360 10355 10350 10344 10338 10331 10324 10316 10309 10301 10294 10286 10280 10272 10265 10259 10253 10248 10243 10239 10233 10228 10223 10217 10212 10206 10202 10197 10193 10189 10184 10180 10176 10171 10168 10164 10161 10157 10154 10150 10147
10450 10448 10446 10443 10440 10438 10438 10437 10437 10440 10451 10464 10469 10465 10456 10447 10443 10440 10437 10440 10441 10433 10426 10418 10409 10407 10408 10405 10403 10403 10400 10398 10400 10396 10389 10386 10386 10383 10376 10372 10368 10363 10359 10355 10351 10347 10341 10336 10330 10323 10315 10308 10300 10292 10285 10278 10271 10264 10257 10251 10245 10240 10235 10229 10224 10218 10213 10207 10201 10196 10191 10186 10182 10178 10173 10169 10165 10161 10157 10153 10150 10146 10143 10139 10137 10133
10439 10436 10436 10432 10427 10427 10425 10424 10424 10425 10436 10452 10453 10443 10437 10432 10428 10423 10418 10422 10429 10424 10412 10402 10396 10396 10396 10392 10390 10389 10386 10386 10388 10383 10377 10377 10376 10369 10364 10361 10356 10352 10349 10344 10339 10333 10327 10321 10315 10307 10299 10291 10283 10276 10269 10262 10256 10249 10242 10237 10231 10226 10221 10215 10209 10204 10198 10192 10186 10181 10176 10171 10166 10163 10158 10155 10151 10147 10143 10140 10136 10133 10130 10126 10123 10119
10427 10425 10426 10422 10417 10418 10417 10413 10413 10415 10424 10437 10436 10428 10424 10420 10413 10406 10399 10405 10419 10412 10395 10389 10389 10385 10382 10380 10377 10375 10373 10373 10373 10368 10365 10365 10361 10355 10351 10348 10343 10339 10336 10331 10325 10318 10311 10305 10298 10289 10282 10274 10266 10260 10254 10247 10241 10234 10228 10223 10217 10212 10206 10200 10195 10190 10184 10179 10173 10167 10162 10157 10153 10149 10145 10141 10138 10133 10130 10126 10122 10119 10116 10113 10110 10106
10415 10413 10412 10410 10408 10409 10406 10402 10402 10405 10412 10420 10418 10414 10412 10407 10399 10391 10385 10391 10400 10393 10383 10382 10380 10374 10371 10369 10365 10363 10361 10358 10357 10355 10352 10350 10346 10341 10337 10333 10328 10325 10320 10314 10309 10303 10295 10288 10281 10273 10265 10258 10251 10245 10238 10232 10226 10220 10214 10209 10203 10197 10191 10186 10182 10176 10170 10165 10160 10155 10150 10145 10140 10136 10132 10128 10124 10120 10116 10112 10109 10106 10103 10099 10096 10093
10404 10401 10397 10396 10397 10396 10393 10390 10389 10393 10402 10407 10401 10396 10395 10390 10381 10377 10376 10375 10373 10369 10370 10370 10365 10363 10363 10358 10353 10352 10348 10344 10344 10343 10342 10339 10335 10329 10324 10319 10315 10310 10304 10299 10293 10286 10279 10272 10265 10257 10249 10241 10235 10230 10223 10217 10211 10206 10200 10194 10188 10182 10177 10173 10168 10162 10157 10152 10147 10141 10136 10132 10127 10123 10118 10114 10110 10106 10102 10098 10095 10092 10089 10086 10083 10080
10393 10389 10385 10385 10386 10385 10381 10377 10374 10381 10394 10395 10383 10376 10377 10372 10364 10362 10362 10357 10351 10350 10351 10350 10348 10350 10349 10346 10344 10341 10337 10334 10332 10331 10330 10327 10323 10317 10310 10305 10301 10295 10289 10283 10276 10269 10263 10256 10249 10242 10234 10227 10221 10215 10209 10203 10197 10191 10185 10180 10174 10167 10162 10158 10153 10148 10143 10138 10132 10128 10123 10119 10114 10110 10106 10101 10097 10092 10089 10085 10082 10080 10076 10073 10071 10067
10381 10377 10375 10378 10379 10373 10369 10367 10367 10372 10381 10379 10366 10360 10360 10354 10347 10343 10341 10338 10336 10333 10331 10331 10333 10334 10333 10334 10334 10329 10326 10323 10320 10317 10315 10312 10307 10302 10296 10291 10286 10280 10273 10266 10258 10252 10246 10240 10234 10227 10220 10213 10206 10200 10195 10189 10182 10177 10172 10166 10159 10152 10147 10143 10138 10133 10128 10123 10118 10114 10109 10105 10101 10097 10092 10088 10083 10079 10076 10072 10069 10066 10063 10060 10058 10055
10368 10367 10366 10369 10368 10362 10359 10360 10362 10362 10363 10360 10353 10347 10340 10331 10327 10325 10321 10319 10317 10315 10315 10318 10319 10319 10320 10321 10320 10317 10315 10311 10306 10303 10299 10295 10291 10286 10280 10275 10270 10264 10258 10250 10242 10235 10229 10223 10218 10212 10205 10198 10191 10185 10179 10173 10167 10163 10158 10151 10144 10138 10132 10128 10123 10119 10113 10108 10104 10100 10095 10091 10087 10083 10078 10074 10070 10066 10062 10059 10055 10053 10050 10047 10045 10043
10355 10356 10357 10357 10356 10353 10351 10352 10352 10349 10345 10342 10337 10329 10320 10312 10307 10305 10303 10302 10301 10301 10303 10305 10305 10305 10305 10305 10305 10305 10303 10298 10292 10287 10283 10279 10274 10268 10262 10258 10253 10246 10240 10232 10225 10218 10212 10207 10203 10198 10191 10183 10175 10169 10163 10157 10152 10148 10142 10136 10129 10123 10118 10113 10109 10104 10099 10094 10090 10086 10082 10078 10073 10069 10065 10060 10057 10053 10049 10045 10042 10039 10037 10034 10032 10030
10344 10345 10346 10346 10344 10341 10340 10341 10339 10333 10328 10326 10321 10312 10303 10296 10290 10288 10289 10289 10289 10289 10290 10290 10289 10289 10290 10291 10292 10291 10288 10284 10278 10272 10266 10262 10256 10249 10244 10239 10232 10226 10219 10213 10206 10200 10195 10191 10187 10182 10175 10167 10160 10153 10148 10143 10138 10133 10127 10122 10115 10110 10105 10100 10096 10091 10086 10081 10077 10073 10069 10065 10060 10056 10052 10048 10044 10040 10036 10032 10030 10026 10023 10021 10019 10017
10333 10332 10330 10331 10331 10328 10326 10327 10324 10317 10313 10311 10305 10296 10289 10283 10279 10278 10278 10277 10276 10276 10275 10275 10275 10276 10277 10278 10278 10276 10273 10268 10262 10256 10251 10246 10239 10233 10226 10219 10212 10205 10199 10193 10187 10181 10178 10175 10171 10165 10159 10151 10144 10138 10134 10129 10124 10118 10113 10107 10101 10096 10092 10087 10083 10078 10073 10068 10065 10061 10057 10052 10048 10044 10040 10036 10031 10027 10024 10020 10017 10014 10011 10008 10006 10003
10320 10318 10316 10318 10318 10314 10312 10313 10309 10303 10299 10295 10289 10283 10279 10274 10271 10268 10265 10262 10262 10263 10263 10262 10262 10263 10264 10265 10263 10260 10256 10250 10245 10239 10234 10228 10223 10216 10207 10199 10193 10187 10181 10175 10169 10164 10161 10158 10154 10149 10144 10137 10130 10124 10120 10115 10110 10104 10099 10093 10088 10083 10079 10074 10069 10065 10060 10056 10052 10048 10044 10040 10036 10032 10028 10024 10019 10015 10011 10008 10005 10002 9998 9995 9993 9991
10309 10309 10309 10307 10304 10302 10301 10298 10293 10288 10285 10282 10277 10272 10268 10263 10259 10255 10251 10249 10248 10248 10248 10248 10248 10250 10251 10250 10246 10242 10239 10234 10228 10222 10216 10212 10206 10197 10188 10181 10175 10170 10165 10159 10153 10149 10145 10142 10137 10133 10128 10123 10117 10111 10106 10101 10096 10091 10086 10080 10076 10071 10066 10061 10057 10052 10048 10044 10040 10036 10032 10028 10023 10019 10016 10011 10007 10003 9999 9995 9992 9989 9986 9983 9981 9979
10297 10299 10298 10293 10292 10292 10288 10281 10276 10275 10274 10270 10264 10258 10254 10249 10244 10240 10236 10234 10234 10234 10234 10233 10234 10235 10234 10231 10228 10225 10223 10218 10211 10204 10199 10194 10187 10178 10171 10165 10159 10154 10149 10143 10138 10133 10129 10125 10121 10117 10112 10108 10103 10098 10093 10087 10082 10078 10073 10068 10064 10060 10054 10049 10045 10040 10036 10032 10028 10025 10021 10016 10011 10008 10003 9999 9995 9991 9987 9983 9979 9976 9974 9971 9969 9967
10282 10284 10283 10281 10281 10279 10271 10265 10262 10261 10259 10255 10248 10242 10238 10234 10229 10224 10221 10222 10223 10223 10221 10218 10218 10218 10216 10213 10211 10208 10206 10201 10194 10187 10181 10176 10169 10161 10155 10148 10142 10138 10134 10128 10123 10118 10112 10108 10104 10101 10096 10092 10088 10084 10079 10074 10069 10064 10060 10056 10052 10048 10042 10037 10033 10028 10024 10020 10016 10013 10009 10004 10000 9996 9992 9987 9984 9979 9975 9970 9966 9963 9961 9959 9957 9954